Location: De Weide
(52.7167°N, 6.4500°E)
Time: 05:41:18
(UTC+00:00)

Daily predictions for brighter satellites

Satellite Brightness Start Highest point End
(mag) Time Altitude Azimuth Time Altitude Azimuth Time Altitude Azimuth
Cosmos 2227 Rocket 2.6 00:00:59 10° NW 00:06:26 48° WSW 00:09:27 25° S
Cosmos 1844 Rocket 4.3 00:02:15 10° NNW 00:07:23 34° NE 00:12:27 10° ESE
GEOS 3 Rocket 3.7 00:07:33 10° NE 00:12:49 78° NW 00:17:31 13° SW
Cosmos 1238 Rocket 4.5 00:11:35 10° N 00:16:32 40° ENE 00:20:48 12° SE
IDEFIX/ARIANE 42P 4.3 00:13:35 10° NE 00:17:38 23° E 00:21:27 11° SE
Landsat 4 4.3 00:18:24 20° ESE 00:19:51 34° ENE 00:22:27 10° N
Cosmos 1441 Rocket 3.5 00:20:22 28° SW 00:21:50 48° WNW 00:25:12 10° N
Meteor 2-2 Rocket 4.4 00:19:02 10° NNW 00:24:35 61° W 00:28:00 24° S
Cosmos 2221 3.1 00:21:19 10° N 00:25:30 50° ENE 00:28:33 17° SE
Cosmos 1315 Rocket 3.8 00:25:30 10° NNW 00:28:54 30° W 00:30:17 24° SW
Okean 1 3.2 00:26:16 10° N 00:30:01 72° E 00:32:02 25° SSE
SeaSat 1 4.1 00:26:56 10° ESE 00:31:20 34° NE 00:35:45 10° NNW
Cosmos 1812 Rocket 3.7 00:28:07 10° N 00:32:30 72° ENE 00:35:21 21° SSE
Geosat 4.0 00:28:12 10° NNE 00:33:15 86° NW 00:36:37 21° SW
Meteor 1-26 Rocket 4.3 00:28:15 10° NNW 00:33:32 57° W 00:36:44 23° SSW
Cosmos 1125 Rocket 3.5 00:30:24 23° SSW 00:33:45 84° WNW 00:39:03 10° NNE
Nadezhda 1 Rocket 4.0 00:29:53 10° N 00:36:10 87° E 00:40:50 18° S
Cosmos 1932 4.5 00:31:36 19° SW 00:36:21 87° SE 00:42:48 10° NE
Meteor 2-6 Rocket 4.3 00:33:45 10° NNW 00:39:34 89° W 00:44:02 18° S
Cosmos 2150 Rocket 4.5 00:36:24 22° S 00:39:45 54° ESE 00:45:03 10° NNE
CENTAUR R/B 4.2 00:37:33 10° SE 00:41:15 18° ESE 00:45:25 10° ENE
Cosmos 2058 Rocket 4.2 00:38:04 10° NNW 00:41:58 30° W 00:44:04 20° SW
H-2A R/B 2.2 00:41:17 26° S 00:43:20 75° WSW 00:47:17 10° NNW
Okean 1-7 Rocket 4.1 00:42:59 21° SSE 00:45:50 54° E 00:50:16 10° NNE
Cosmos 614 Rocket 4.4 00:41:23 10° NW 00:46:10 44° WSW 00:48:55 23° SSW
Cosmos 2322 Rocket 4.3 00:44:16 10° SE 00:47:35 16° E 00:50:53 10° ENE
Cosmos 1745 Rocket 4.2 00:44:17 19° S 00:48:56 74° E 00:55:17 10° NNE
ADEOS II 4.5 00:46:31 10° ENE 00:48:57 13° E 00:51:22 10° ESE
ATLAS 5 CENTAUR R/B 2.1 00:45:47 10° NW 00:49:54 63° NE 00:55:03 10° ESE
BREEZE-M DEB (TANK) 4.2 00:50:01 10° W 00:50:49 14° WSW 00:50:49 14° WSW
CZ-4C R/B 4.3 00:49:32 10° WNW 00:54:20 31° N 01:00:20 10° ENE
Cosmos 2263 Rocket 2.8 00:50:18 10° NW 00:55:30 39° WSW 00:58:41 21° SSW
MOZ.5/SAFIR/RUBIN 5/SL-8 4.5 00:52:21 10° SE 00:56:52 53° ENE 01:01:27 10° N
CZ-2C R/B 2.9 00:56:07 10° NNE 01:00:54 72° WNW 01:04:01 21° SSW
Meteor 1-27 Rocket 4.5 00:56:19 10° N 01:02:10 55° ENE 01:07:58 10° SSE
Cosmos 2082 3.9 00:56:44 10° NW 01:02:14 52° WSW 01:06:25 17° S
Cosmos 1709 Rocket 4.2 00:57:16 17° S 01:02:16 69° E 01:08:32 10° NNE
USA 32 4.1 01:00:07 21° SSW 01:03:38 74° W 01:08:53 10° N
Cosmos 192 4.4 01:00:29 21° SSW 01:03:46 79° WNW 01:08:43 10° NNE
Cosmos 2369 3.7 01:01:32 21° SSW 01:05:28 77° ESE 01:11:08 10° NNE
MSX 4.4 01:00:10 10° NNE 01:05:45 51° E 01:10:26 15° S
Cosmos 1602 Rocket 3.6 01:07:34 22° SSW 01:10:16 73° WNW 01:14:39 10° N
Cosmos 2298 Rocket 4.0 01:07:44 20° SSW 01:11:26 86° ESE 01:16:47 10° NNE
Cosmos 1758 Rocket 4.0 01:09:37 21° SW 01:12:22 51° WNW 01:16:44 10° N
Cosmos 1626 Rocket 4.4 01:11:27 19° SW 01:14:13 40° WNW 01:18:24 10° N
Cosmos 2219 4.0 01:12:27 10° NW 01:17:28 33° WSW 01:20:47 18° SSW
SL-16 R/B 3.0 01:13:38 15° S 01:17:57 41° ESE 01:23:14 10° NE
USA 290 4.0 01:16:42 10° WNW 01:19:02 18° WSW 01:19:33 18° WSW
Meteor 1-10 Rocket 4.3 01:14:15 10° NNW 01:20:00 81° W 01:25:25 12° S
Cosmos 2333 Rocket 3.6 01:15:34 10° SSE 01:20:21 29° ESE 01:25:09 10° NE
Cosmos 1842 Rocket 4.3 01:17:29 10° N 01:21:49 51° ENE 01:26:04 10° SSE
USA 276 4.1 01:22:20 12° SE 01:22:20 12° SE 01:23:16 10° ESE
Spot 2 4.3 01:20:18 20° SSW 01:22:44 46° W 01:26:36 10° NNW
BREEZE M DEB (TANK) 2.8 01:21:29 18° WSW 01:22:56 37° S 01:26:50 10° ESE
BREEZE-M DEB 4.3 01:08:06 10° W 01:23:38 67° SSW 01:27:42 10° ESE
ATLAS 2AS CENTAUR R/B 3.3 01:18:04 10° NW 01:24:04 35° WSW 01:29:12 13° S
Meteor 2-4 Rocket 4.5 01:20:18 10° N 01:25:33 50° ENE 01:30:44 10° SE
Cosmos 44 Rocket 4.3 01:25:06 15° S 01:28:20 33° ESE 01:32:35 10° NE
Cosmos 1707 3.6 01:25:29 10° N 01:28:35 38° ENE 01:31:41 10° SE
Cosmos 921 Rocket 3.8 01:24:40 10° NW 01:28:40 34° WSW 01:31:10 19° SSW
Cosmos 1980 Rocket 2.7 01:25:56 13° SW 01:30:45 52° NW 01:36:17 10° NNE
Cosmos 1743 2.7 01:28:38 18° S 01:30:59 61° E 01:34:18 10° NNE
NPP 3.8 01:27:27 10° NNE 01:32:52 71° ESE 01:37:32 14° S
Cosmos 1697 Rocket 4.2 01:31:24 10° WSW 01:36:22 30° NW 01:41:22 10° NNE
Lacrosse 5 rocket 3.0 01:35:29 10° W 01:37:12 14° WSW 01:37:12 14° WSW
Meteor 1-20 Rocket 4.3 01:33:05 15° S 01:38:01 85° ESE 01:43:47 10° NNE
Cosmos 2151 3.2 01:35:22 18° SSW 01:38:15 55° WNW 01:42:19 10° N
KORONAS-FOTON 4.0 01:34:52 10° N 01:38:24 63° ENE 01:41:53 10° SSE
Cosmos 1023 Rocket 4.4 01:33:30 10° NNW 01:38:41 80° WSW 01:43:52 10° SSE
Cosmos 1140 Rocket 3.4 01:35:35 10° NNW 01:40:45 82° WSW 01:45:56 10° SSE
CZ-2C R/B 4.0 01:37:54 15° SW 01:41:18 26° W 01:45:56 10° NW
Resurs 1-4 Rocket 2.9 01:37:46 10° NNE 01:42:56 47° E 01:48:03 10° S
GENESIS II 4.2 01:44:58 15° WSW 01:46:57 42° NW 01:49:36 10° NE
Cosmos 1842 3.4 01:44:32 10° N 01:47:55 58° ENE 01:51:17 10° SSE
Cosmos 1076 Rocket 3.5 01:46:03 14° S 01:49:42 84° E 01:53:58 10° NNE
Cosmos 1844 Rocket 2.7 01:46:04 10° NW 01:51:37 62° WSW 01:57:07 10° SSE
SJ 16-02 4.3 01:48:50 10° N 01:51:55 19° NE 01:54:59 10° E
Cosmos 1238 Rocket 4.2 01:48:27 10° NNW 01:53:09 35° W 01:56:48 14° SSW
Cosmos 407 Rocket 3.7 01:50:24 10° NNW 01:55:41 79° ENE 02:00:59 10° SSE
Cosmos 1844 3.8 01:50:20 10° NW 01:55:57 63° WSW 02:01:37 10° SSE
CZ-2D R/B 2.6 01:51:23 10° NNE 01:56:32 55° E 02:01:37 10° S
IDEFIX/ARIANE 42P 2.7 01:52:25 10° N 01:57:34 66° WNW 02:02:09 13° SSW
Cosmos 1151 Rocket 4.4 01:53:46 10° N 01:57:52 40° ENE 02:01:55 10° SE
EP 1 4.4 01:57:15 10° NW 01:59:47 51° SW 02:02:35 10° SSE
H-2A R/B 2.1 01:57:07 10° NNE 02:01:22 80° ESE 02:05:29 11° SSW
Cosmos 2184 Rocket 4.4 01:55:13 10° S 02:01:30 65° E 02:07:49 10° NNE
Cosmos 2221 4.1 01:59:06 10° NW 02:02:16 20° W 02:04:55 12° SW
Cosmos 2237 4.3 01:58:13 13° SW 02:03:19 75° WNW 02:09:03 10° NNE
Cosmos 1953 Rocket 3.7 02:04:16 13° SSW 02:08:06 63° WNW 02:12:25 10° N
SeaSat 1 2.6 02:03:46 10° SSE 02:08:34 55° WSW 02:13:23 10° NW
Cosmos 2360 Rocket 2.8 02:03:16 10° S 02:08:39 51° ESE 02:14:05 10° NE
Cosmos 1346 Rocket 3.3 02:09:59 13° SW 02:13:00 41° WNW 02:16:33 10° N
Cosmos 2278 3.7 02:08:06 12° SSW 02:13:24 89° WNW 02:19:06 10° NNE
Cosmos 2154 Rocket 4.3 02:07:39 10° S 02:13:52 69° E 02:20:10 10° NNE
Cosmos 1733 2.6 02:14:22 13° SSW 02:16:59 63° WNW 02:19:57 10° N
Molniya-1 4.3 02:19:20 11° SW 02:22:50 85° SE 02:33:01 10° NE
Cosmos 2219 Rocket 3.2 02:18:15 10° S 02:23:24 39° ESE 02:28:35 10° NE
H-2A R/B 3.7 02:19:58 10° NE 02:24:12 28° E 02:28:22 10° SSE
Cosmos 2074 Rocket 4.0 02:20:28 10° S 02:26:41 86° W 02:32:58 10° N
ADEOS II 2.3 02:24:11 10° NNE 02:29:27 74° ESE 02:34:40 10° S
Cosmos 405 Rocket 4.4 02:27:07 10° SSE 02:29:47 24° E 02:32:29 10° NE
CENTAUR R/B 2.7 02:24:39 10° SW 02:30:23 75° SE 02:37:40 10° NE
Cosmos 2322 Rocket 2.3 02:25:05 10° SSW 02:30:44 80° ESE 02:36:23 10° NNE
ALOS 2.4 02:27:24 10° NNE 02:32:00 78° ESE 02:36:35 10° S
ATLAS 5 CENTAUR R/B 2.6 02:28:40 10° WNW 02:32:39 30° SW 02:37:23 10° S
Meteor 1-28 Rocket 3.9 02:33:37 10° SSE 02:36:52 49° ENE 02:40:09 10° N
Meteor 1-18 Rocket 4.2 02:32:16 10° NNW 02:37:49 73° W 02:43:20 10° S
Cosmos 2251 Rocket 3.5 02:33:02 10° NNW 02:38:21 78° WSW 02:43:37 10° SSE
Envisat 3.1 02:38:06 10° NNE 02:43:13 82° ESE 02:48:17 10° SSW
NOSS 3-2 (A) 3.9 02:38:27 10° SSW 02:43:22 48° ESE 02:49:13 10° NE
DMSP B5D2-2 4.1 02:38:50 10° S 02:44:04 72° WSW 02:49:17 10° NNW
CZ-4C R/B 4.3 02:38:31 10° NW 02:44:11 39° NNE 02:51:19 10° E
